250  
ASUS44 KMEG 241010  
RWRMEG  
MEMPHIS CWA HOURLY WEATHER ROUNDUP  
NATIONAL WEATHER SERVICE MEMPHIS TN  
400 AM CST SAT FEB 24 2018  
   
..WEST TENNESSEE
 
 
 
CITY SKY/WX TMP DP RH WIND PRES REMARKS
 
MEMPHIS INTL DRIZZLE 64 64 100 S9 30.01F FOG  
NWS MEMPHIS N/A 60 N/A N/A MISG N/A  
JACKSON CLOUDY 62 62 100 SE5 30.02F  
COVINGTON CLOUDY 57 57 100 SE6 30.01F FOG  
BOLIVAR CLOUDY 64 64 100 S7 30.02F FOG  
LEXINGTON CLOUDY 63 61 94 SE3 30.04F  
SELMER CLOUDY 64 63 94 S6 30.03F  
SAVANNAH CLOUDY 63 63 100 S3 30.04F  
DYERSBURG LGT RAIN 56 56 100 E3 30.01F VSB 1  
UNION CITY CLOUDY 55 55 100 E5 30.01F FOG  
PARIS CLOUDY 57 57 100 E6 30.02F  
 
   
..EASTERN ARKANSAS
 
 
 
CITY SKY/WX TMP DP RH WIND PRES REMARKS
 
JONESBORO CLOUDY 54 54 100 E5 29.99F  
WEST MEMPHIS CLOUDY 62 62 100 S10 29.99S FOG  
BATESVILLE LGT RAIN 50 48 93 CALM 29.99F VSB 1  
NEWPORT LGT RAIN 53 53 100 CALM 29.99F FOG  
WALNUT RIDGE LGT RAIN 51 51 100 CALM 29.99S FOG  
BLYTHEVILLE CLOUDY 57 55 93 SE7 30.00F  
SEARCY FOG 52 32 46 CALM 29.99F VSB 1/2  
STUTTGART LGT RAIN 60 60 100 S7 30.00S VSB 1/2  
PINE BLUFF CLOUDY 57 57 100 CALM 30.00S FOG  
MONTICELLO CLOUDY 68 65 90 S6 30.01S  
 
   
..NORTH MISSISSIPPI
 
 
 
CITY SKY/WX TMP DP RH WIND PRES REMARKS
 
TUPELO CLOUDY 67 64 90 S10 30.05F  
BATESVILLE N/A N/A N/A N/A MISG N/A  
TUNICA DRIZZLE 63 63 100 S8 30.02F  
CLARKSDALE CLOUDY 66 66 100 S8 30.03S FOG  
CORINTH CLOUDY 64 64 100 S6 30.04S  
GREENWOOD FAIR 66 65 96 S8 30.04S  
COLUMBUS CLOUDY 68 68 100 S10 30.07S  
STARKVILLE CLOUDY 66 64 94 S7 30.09R  
GOLDEN TRIANGL CLOUDY 66 66 100 S9 30.09S  
 
   
..SOUTHEAST MISSOURI
 
 
 
CITY SKY/WX TMP DP RH WIND PRES REMARKS
 
KENNETT CLOUDY 55 55 100 E7 29.98F FOG  
MALDEN LGT RAIN 52 50 93 NE5 30.02F  
WEST PLAINS CLOUDY 48 47 96 VRB5G16 29.97F  
POPLAR BLUFF LGT RAIN 50 49 96 NE10 29.99F FOG  
CAPE GIRARDEAU CLOUDY 49 47 93 NE13 30.03F  
 
   
..NORTHWEST ALABAMA
 
 
 
CITY SKY/WX TMP DP RH WIND PRES REMARKS
 
MUSCLE SHOALS CLOUDY 64 61 90 SE6 30.08F  
 
   
..MIDDLE TENNESSEE
 
 
 
CITY SKY/WX TMP DP RH WIND PRES REMARKS
 
NASHVILLE CLOUDY 61 59 93 CALM 30.08F  
CLARKSVILLE LGT RAIN 57 55 93 NE3 30.06F FOG  
COLUMBIA CLOUDY 63 63 100 S5 30.05F  
 
   
..WESTERN KENTUCKY
 
 
 
CITY SKY/WX TMP DP RH WIND PRES REMARKS
 
PADUCAH LGT RAIN 50 49 96 NE8 30.04F FOG  
FORT CAMPBELL DRIZZLE 57 57 100 E6 30.04 FOG  
 
   
..CENTRAL ARKANSAS
 
 
 
CITY SKY/WX TMP DP RH WIND PRES REMARKS
 
LITTLE ROCK FOG 53 53 100 CALM 29.98F VSB 1/8  
 
SKY/WX REPORTED AS FAIR MEANS FEW OR NO CLOUDS BELOW  
12 THOUSAND FEET.  
 
 
 
CLICK HERE TO GO TO PREVIOUS BULLETINS.

The Nexlab TN Page
The Nexlab MS Page
The Nexlab AR Page Main Text Page